DMSP 5D-2 F13 DEB, 42327

Orbit data source: Space-Track

DMSP 5D-2 F13 DEB, 42327 is space debris in SSO originally from a launch on Fri, 24 Mar 1995 UTC launched from the Air Force Western Test Range (AFWTR). Debris objects in space refer to the collection of defunct objects orbiting the Earth. Examples of debris include non-operational satellites, rocket bodies, and fragments generated from explosions, collisions, or faulty payload assembly.

Loading next visibility...
Identifier
42327, 1995-015JV
Orbit
SSO
Country
Flag of USUS
Related business
Manufacturer
Unknown
Mission
Spacecraft
Bus & Motor
Unknown
Mass
Unknown
Launch date (UTC)
1995-03-24 (31 years ago)
Launch vehicle
Unknown
Launch site
Air Force Western Test Range (AFWTR)
Object type
Payload
Rocket body
Debris
Shape & HBR
Unknown shape, 0.1 m
Radar Cross Section
Small (<0.1 m²)

Expand to show TLE details & history
Last TLE update: 2 days ago

TLE from 2 days ago
0 DMSP 5D-2 F13 DEB
1 42327U 95015JV  25347.05132377  .00007807  00000-0  25469-2 0  9997
2 42327  98.6879  19.6495 0006035 194.6045 165.4969 14.38889038526920
Epoch: 2025-12-13T01:13Z
TLE epoch observation values (Epoch: 2025-12-13T01:13:54.373Z)
Latitude
0.00001°
Longitude
-80.8112°
Altitude
769.285 km
Speed
7.467 km/s
True Right ascension
01h 18m 35s
True Declination
0° 00' 00"
Sunlit
Object was in partial shadow at epoch
Visualization orbit readout
Latitude
Unknown
Longitude
Unknown
Altitude
Unknown
Speed
Unknown
Apparent Right ascension
Unknown
Apparent Declination
Unknown
Sunlit
N/A
Visualization observer readout
Local Sidereal Time
03:01:25
Azimuth
Unknown
Elevation
Unknown
Doppler factor
Unknown
Orbital elements
Apogee altitude
763.611 km
Perigee altitude
754.996 km
Semi-major axis
7,137.441 km
Eccentricity
0.0006
Inclination
98.6879°
RAAN
19.6495°
Arg. of periapsis
194.6045°
True anomaly
165.51421°
Mean anomaly
165.4969°
Eccentric anomaly
165.50555°
Mean motion
3.59939 °/min
Orbital period
100.02 mins
BSTAR
0.0025469
Loading maneuver chart data...
Computing Atmospheric mass density...

Documentation

Showing up to 5 results
|